DLH8BM EDDF-EDDM

Flight info

Callsign DLH8BM
Flight time 0h 31m
Altitude 23000
Route CINDY8S/18 CINDY Z74 HAREM T104 ROKIL
Aircraft A320/M-SDE3FGHIRWY/LB1

Departure

Time 2026-05-04 14:46
Airport Frankfurt Main Airport (EDDF)

Arrival

Time 2026-05-04 15:17
Airport Munich Airport (EDDM)
Time Latitude Longitude Altitude Speed Heading
2026-05-04 14:36 50.03577 8.53664 341 ft 0 kts 159°
2026-05-04 14:43 50.03566 8.53670 340 ft 6 kts 159°
2026-05-04 14:43 50.03513 8.53678 339 ft 9 kts 213°
2026-05-04 14:43 50.03480 8.53572 338 ft 13 kts 249°
2026-05-04 14:44 50.03441 8.53408 335 ft 19 kts 250°
2026-05-04 14:44 50.03389 8.53195 333 ft 23 kts 249°
2026-05-04 14:44 50.03332 8.52955 331 ft 24 kts 250°
2026-05-04 14:44 50.03278 8.52730 333 ft 17 kts 249°
2026-05-04 14:45 50.03266 8.52631 335 ft 6 kts 264°
2026-05-04 14:45 50.03243 8.52597 335 ft 5 kts 196°
2026-05-04 14:45 50.03228 8.52596 334 ft 0 kts 181°
2026-05-04 14:45 50.03159 8.52596 334 ft 38 kts 180°
2026-05-04 14:46 50.02641 8.52600 335 ft 107 kts 179°
2026-05-04 14:46 50.01702 8.52611 358 ft 158 kts 181°
2026-05-04 14:46 50.00576 8.52621 993 ft 161 kts 181°
2026-05-04 14:46 49.99455 8.52623 1754 ft 164 kts 184°
2026-05-04 14:47 49.98247 8.52615 2180 ft 182 kts 183°
2026-05-04 14:47 49.96946 8.53059 2520 ft 207 kts 154°
2026-05-04 14:47 49.95860 8.54707 2831 ft 234 kts 120°
2026-05-04 14:47 49.95062 8.57010 3567 ft 242 kts 119°
2026-05-04 14:48 49.94286 8.59406 4510 ft 245 kts 109°
2026-05-04 14:48 49.93981 8.61971 5146 ft 262 kts 94°
2026-05-04 14:48 49.93862 8.64901 5816 ft 278 kts 95°
2026-05-04 14:48 49.93488 8.67833 6786 ft 277 kts 113°
2026-05-04 14:49 49.92558 8.70435 7743 ft 276 kts 131°
2026-05-04 14:49 49.91139 8.72470 8712 ft 274 kts 147°
2026-05-04 14:49 49.89579 8.74193 9672 ft 277 kts 144°
2026-05-04 14:49 49.88210 8.76320 10508 ft 286 kts 131°
2026-05-04 14:50 49.87112 8.79023 10824 ft 312 kts 122°
2026-05-04 14:50 49.85994 8.82113 11230 ft 331 kts 122°
2026-05-04 14:50 49.84873 8.85239 11931 ft 338 kts 122°
2026-05-04 14:50 49.83726 8.88449 12705 ft 343 kts 121°
2026-05-04 14:51 49.82563 8.91694 13497 ft 347 kts 121°
2026-05-04 14:51 49.81376 8.94984 14295 ft 353 kts 121°
2026-05-04 14:51 49.80164 8.98325 15084 ft 358 kts 122°
2026-05-04 14:51 49.78933 9.01701 15777 ft 362 kts 122°
2026-05-04 14:52 49.77683 9.05118 16439 ft 367 kts 122°
2026-05-04 14:52 49.76481 9.08635 17092 ft 374 kts 116°
2026-05-04 14:52 49.75636 9.12481 17723 ft 381 kts 110°
2026-05-04 14:52 49.74535 9.16175 18304 ft 378 kts 130°
2026-05-04 14:53 49.72804 9.19238 18843 ft 380 kts 136°
2026-05-04 14:53 49.71024 9.22276 19420 ft 383 kts 135°
2026-05-04 14:53 49.69251 9.25371 19993 ft 386 kts 135°
2026-05-04 14:53 49.67484 9.28528 20554 ft 390 kts 134°
2026-05-04 14:54 49.65721 9.31728 21102 ft 393 kts 134°
2026-05-04 14:54 49.63953 9.34968 21652 ft 396 kts 134°
2026-05-04 14:54 49.62171 9.38236 22207 ft 400 kts 134°
2026-05-04 14:54 49.60372 9.41525 22730 ft 403 kts 134°
2026-05-04 14:55 49.58556 9.44828 22945 ft 405 kts 134°
2026-05-04 14:55 49.56695 9.48191 22988 ft 420 kts 134°
2026-05-04 14:55 49.54769 9.51660 22987 ft 434 kts 134°
2026-05-04 14:55 49.52773 9.55255 22994 ft 448 kts 134°
2026-05-04 14:56 49.50723 9.58943 22990 ft 459 kts 134°
2026-05-04 14:56 49.48623 9.62720 22991 ft 469 kts 134°
2026-05-04 14:56 49.46497 9.66552 22993 ft 472 kts 134°
2026-05-04 14:56 49.44367 9.70390 22993 ft 473 kts 134°
2026-05-04 14:57 49.42233 9.74230 22998 ft 473 kts 134°
2026-05-04 14:57 49.40094 9.78065 23000 ft 473 kts 134°
2026-05-04 14:57 49.37949 9.81898 23001 ft 473 kts 134°
2026-05-04 14:57 49.35800 9.85727 23002 ft 473 kts 134°
2026-05-04 14:58 49.33649 9.89547 23001 ft 473 kts 134°
2026-05-04 14:58 49.31472 9.93407 23007 ft 473 kts 134°
2026-05-04 14:58 49.29345 9.97178 23001 ft 473 kts 134°
2026-05-04 14:58 49.27196 10.00993 22995 ft 473 kts 134°
2026-05-04 14:59 49.25046 10.04815 22992 ft 473 kts 134°
2026-05-04 14:59 49.22898 10.08633 22997 ft 473 kts 134°
2026-05-04 14:59 49.18596 10.16242 22986 ft 473 kts 134°
2026-05-04 15:00 49.16434 10.20045 22986 ft 473 kts 134°
2026-05-04 15:00 49.14274 10.23839 22979 ft 473 kts 134°
2026-05-04 15:00 49.12076 10.27582 22986 ft 473 kts 135°
2026-05-04 15:01 49.07550 10.34863 22980 ft 473 kts 137°
2026-05-04 15:01 49.05251 10.38463 22754 ft 474 kts 137°
2026-05-04 15:01 49.02963 10.42046 22083 ft 469 kts 137°
2026-05-04 15:01 49.00710 10.45603 21426 ft 464 kts 137°
2026-05-04 15:02 48.98488 10.49139 20791 ft 459 kts 136°
2026-05-04 15:02 48.96295 10.52642 20174 ft 455 kts 136°
2026-05-04 15:02 48.94123 10.56115 19566 ft 451 kts 136°
2026-05-04 15:02 48.91960 10.59571 18961 ft 447 kts 136°
2026-05-04 15:03 48.89832 10.62967 18367 ft 443 kts 136°
2026-05-04 15:03 48.87711 10.66345 17717 ft 439 kts 136°
2026-05-04 15:03 48.85612 10.69674 17065 ft 434 kts 137°
2026-05-04 15:03 48.83375 10.72677 16398 ft 426 kts 143°
2026-05-04 15:04 48.81071 10.75460 15773 ft 421 kts 144°
2026-05-04 15:04 48.78789 10.78192 15152 ft 415 kts 144°
2026-05-04 15:04 48.76536 10.80875 14545 ft 408 kts 144°
2026-05-04 15:04 48.74324 10.83492 14087 ft 399 kts 144°
2026-05-04 15:05 48.72163 10.86040 13734 ft 387 kts 144°
2026-05-04 15:05 48.70073 10.88498 13462 ft 374 kts 144°
2026-05-04 15:05 48.68054 10.90873 13194 ft 362 kts 144°
2026-05-04 15:05 48.66100 10.93176 12969 ft 350 kts 144°
2026-05-04 15:06 48.64219 10.95396 12831 ft 336 kts 144°
2026-05-04 15:06 48.62411 10.97537 12582 ft 327 kts 144°
2026-05-04 15:06 48.60625 10.99656 12130 ft 325 kts 144°
2026-05-04 15:07 48.57071 11.03878 11231 ft 318 kts 144°
2026-05-04 15:07 48.55350 11.05929 10775 ft 312 kts 144°
2026-05-04 15:07 48.53668 11.07942 10342 ft 306 kts 144°
2026-05-04 15:07 48.52025 11.09913 9970 ft 298 kts 144°
2026-05-04 15:08 48.50427 11.11838 9583 ft 291 kts 144°
2026-05-04 15:08 48.48862 11.13711 9193 ft 284 kts 144°
2026-05-04 15:08 48.47325 11.15527 8797 ft 278 kts 144°
2026-05-04 15:08 48.45816 11.17293 8415 ft 272 kts 144°
2026-05-04 15:09 48.44330 11.19013 8042 ft 267 kts 144°
2026-05-04 15:09 48.42849 11.20702 7664 ft 267 kts 144°
2026-05-04 15:09 48.41376 11.22394 7292 ft 267 kts 140°
2026-05-04 15:10 48.39526 11.27096 6761 ft 258 kts 115°
2026-05-04 15:10 48.39048 11.28723 6607 ft 254 kts 114°
2026-05-04 15:10 48.37635 11.33479 6114 ft 244 kts 114°
2026-05-04 15:11 48.36939 11.35791 5859 ft 242 kts 114°
2026-05-04 15:11 48.36237 11.38119 5602 ft 239 kts 114°
2026-05-04 15:11 48.35561 11.40350 5351 ft 237 kts 114°
2026-05-04 15:11 48.34881 11.42586 5111 ft 234 kts 114°
2026-05-04 15:12 48.34207 11.44799 4864 ft 232 kts 114°
2026-05-04 15:12 48.33534 11.46996 4615 ft 231 kts 114°
2026-05-04 15:12 48.32866 11.49174 4349 ft 229 kts 114°
2026-05-04 15:12 48.32325 11.51399 4120 ft 226 kts 97°
2026-05-04 15:13 48.32379 11.53714 4006 ft 218 kts 83°
2026-05-04 15:13 48.32556 11.55903 3988 ft 204 kts 83°
2026-05-04 15:13 48.32722 11.57989 3725 ft 199 kts 83°
2026-05-04 15:13 48.32885 11.60044 3468 ft 195 kts 83°
2026-05-04 15:14 48.33040 11.61999 3214 ft 184 kts 83°
2026-05-04 15:14 48.33185 11.63846 2990 ft 171 kts 83°
2026-05-04 15:14 48.33320 11.65536 2769 ft 156 kts 83°
2026-05-04 15:14 48.33449 11.67109 2534 ft 150 kts 83°
2026-05-04 15:15 48.33568 11.68671 2321 ft 148 kts 83°
2026-05-04 15:15 48.33683 11.70174 2146 ft 144 kts 83°
2026-05-04 15:15 48.33795 11.71659 1980 ft 142 kts 82°
2026-05-04 15:16 48.34028 11.74597 1601 ft 141 kts 81°
2026-05-04 15:16 48.34137 11.76025 1485 ft 129 kts 81°
2026-05-04 15:16 48.34294 11.78038 1482 ft 73 kts 83°
2026-05-04 15:17 48.34347 11.78723 1483 ft 58 kts 83°
2026-05-04 15:17 48.34516 11.79325 1475 ft 25 kts 53°
2026-05-04 15:17 48.34619 11.79532 1471 ft 24 kts 53°
2026-05-04 15:18 48.34693 11.79679 1478 ft 15 kts 49°
2026-05-04 15:18 48.34798 11.79704 1480 ft 17 kts 353°
2026-05-04 15:18 48.34923 11.79682 1486 ft 19 kts 353°
2026-05-04 15:19 48.35101 11.79719 1482 ft 10 kts 72°
2026-05-04 15:19 48.35109 11.79812 1485 ft 9 kts 83°
2026-05-04 15:19 48.35128 11.80061 1473 ft 15 kts 83°
2026-05-04 15:20 48.35148 11.80197 1475 ft 12 kts 54°
2026-05-04 15:20 48.35230 11.80215 1480 ft 13 kts 354°
2026-05-04 15:20 48.35331 11.80197 1476 ft 16 kts 353°
2026-05-04 15:20 48.35417 11.80171 1475 ft 12 kts 347°
2026-05-04 15:21 48.35488 11.80156 1485 ft 9 kts 353°
2026-05-04 15:21 48.35540 11.80147 1485 ft 6 kts 353°
2026-05-04 15:21 48.35592 11.80065 1480 ft 7 kts 266°
2026-05-04 15:22 48.35589 11.80016 1485 ft 3 kts 263°
2026-05-04 15:22 48.35587 11.79995 1473 ft 0 kts 264°